Time,TemperatureF,DewpointF,PressureIn,WindDirection,WindDirectionDegrees,WindSpeedMPH,WindSpeedGustMPH,Humidity,HourlyPrecipIn,Conditions,Clouds,dailyrainin,SoftwareType,DateUTC
2013-02-19 00:04:00,39.3,24.5,30.17,SSE,154,2.0,2.0,55,0.00,,,0.02,LWC V2.00 B2112,2013-02-19 05:04:00,
2013-02-19 00:09:00,39.5,25.1,30.16,SW,223,0.0,0.0,56,0.00,,,0.02,LWC V2.00 B2112,2013-02-19 05:09:00,
2013-02-19 00:14:00,39.5,25.1,30.16,South,186,0.0,3.0,56,0.00,,,0.02,LWC V2.00 B2112,2013-02-19 05:14:00,
2013-02-19 00:19:00,39.5,25.1,30.16,SSW,193,0.0,1.0,56,0.00,,,0.02,LWC V2.00 B2112,2013-02-19 05:19:00,
2013-02-19 00:24:00,39.3,24.9,30.15,South,181,0.0,4.0,56,0.00,,,0.02,LWC V2.00 B2112,2013-02-19 05:24:00,
2013-02-19 00:29:00,39.2,24.8,30.15,ESE,122,0.0,1.0,56,0.00,,,0.00,LWC V2.00 B2112,2013-02-19 05:29:00,
2013-02-19 00:34:00,39.1,25.2,30.15,SSE,165,0.0,1.0,57,0.00,,,0.00,LWC V2.00 B2112,2013-02-19 05:34:00,
2013-02-19 00:39:00,38.9,25.0,30.14,South,170,0.0,0.0,57,0.00,,,0.00,LWC V2.00 B2112,2013-02-19 05:39:00,
2013-02-19 00:44:00,38.8,24.9,30.14,ESE,104,0.0,0.0,57,0.00,,,0.00,LWC V2.00 B2112,2013-02-19 05:44:00,
2013-02-19 00:49:00,38.6,24.7,30.14,East,100,0.0,0.0,57,0.00,,,0.00,LWC V2.00 B2112,2013-02-19 05:49:00,
2013-02-19 00:54:00,38.5,24.6,30.13,South,175,3.0,5.0,57,0.00,,,0.00,LWC V2.00 B2112,2013-02-19 05:54:00,
2013-02-19 00:59:00,38.3,24.8,30.13,South,174,0.0,4.0,58,0.00,,,0.00,LWC V2.00 B2112,2013-02-19 05:59:00,
2013-02-19 01:04:00,38.2,24.7,30.13,SSW,206,0.0,1.0,58,0.00,,,0.00,LWC V2.00 B2112,2013-02-19 06:04:00,
2013-02-19 01:09:00,38.0,24.6,30.13,SSE,148,0.0,2.0,58,0.00,,,0.00,LWC V2.00 B2112,2013-02-19 06:09:00,
2013-02-19 01:14:00,37.9,24.9,30.13,SSE,167,0.0,3.0,59,0.00,,,0.00,LWC V2.00 B2112,2013-02-19 06:14:00,
2013-02-19 01:19:00,37.8,25.2,30.13,SSW,212,0.0,0.0,60,0.00,,,0.00,LWC V2.00 B2112,2013-02-19 06:19:00,
2013-02-19 01:24:00,37.6,25.0,30.13,NNW,331,0.0,0.0,60,0.00,,,0.00,LWC V2.00 B2112,2013-02-19 06:24:00,
2013-02-19 01:29:00,37.5,24.9,30.13,SSE,154,0.0,0.0,60,0.00,,,0.00,LWC V2.00 B2112,2013-02-19 06:29:00,
2013-02-19 01:34:00,37.2,25.0,30.13,SSE,156,0.0,4.0,61,0.00,,,0.00,LWC V2.00 B2112,2013-02-19 06:34:00,
2013-02-19 01:39:00,37.0,24.8,30.13,SSW,200,0.0,0.0,61,0.00,,,0.00,LWC V2.00 B2112,2013-02-19 06:39:00,
2013-02-19 01:44:00,36.9,25.1,30.13,SW,230,0.0,0.0,62,0.00,,,0.00,LWC V2.00 B2112,2013-02-19 06:44:00,
2013-02-19 01:49:00,36.8,25.0,30.13,SSW,212,0.0,0.0,62,0.00,,,0.00,LWC V2.00 B2112,2013-02-19 06:49:00,
2013-02-19 01:54:00,36.6,25.2,30.13,South,191,0.0,0.0,63,0.00,,,0.00,LWC V2.00 B2112,2013-02-19 06:54:00,
2013-02-19 01:59:00,36.5,25.1,30.13,South,169,0.0,0.0,63,0.00,,,0.00,LWC V2.00 B2112,2013-02-19 06:59:00,
2013-02-19 02:04:00,36.3,24.9,30.13,WSW,238,0.0,0.0,63,0.00,,,0.00,LWC V2.00 B2112,2013-02-19 07:04:00,
2013-02-19 02:09:00,36.3,25.3,30.11,South,177,0.0,0.0,64,0.00,,,0.00,LWC V2.00 B2112,2013-02-19 07:09:00,
2013-02-19 02:14:00,36.2,25.2,30.11,South,177,0.0,0.0,64,0.00,,,0.00,LWC V2.00 B2112,2013-02-19 07:14:00,
2013-02-19 02:19:00,36.2,25.2,30.11,SSW,198,0.0,0.0,64,0.00,,,0.00,LWC V2.00 B2112,2013-02-19 07:19:00,
2013-02-19 02:24:00,36.0,25.4,30.11,SSW,193,0.0,0.0,65,0.00,,,0.00,LWC V2.00 B2112,2013-02-19 07:24:00,
2013-02-19 02:29:00,35.8,25.2,30.11,SSW,193,0.0,0.0,65,0.00,,,0.00,LWC V2.00 B2112,2013-02-19 07:29:00,
2013-02-19 02:34:00,35.6,25.0,30.11,SSW,207,0.0,0.0,65,0.00,,,0.00,LWC V2.00 B2112,2013-02-19 07:34:00,
2013-02-19 02:39:00,35.3,25.1,30.10,South,175,0.0,0.0,66,0.00,,,0.00,LWC V2.00 B2112,2013-02-19 07:39:00,
2013-02-19 02:44:00,35.0,25.2,30.10,SW,218,0.0,0.0,67,0.00,,,0.00,LWC V2.00 B2112,2013-02-19 07:44:00,
2013-02-19 02:49:00,34.9,25.1,30.10,SW,216,0.0,0.0,67,0.00,,,0.00,LWC V2.00 B2112,2013-02-19 07:49:00,
2013-02-19 02:54:00,34.9,25.1,30.09,South,184,0.0,0.0,67,0.00,,,0.00,LWC V2.00 B2112,2013-02-19 07:54:00,
2013-02-19 02:59:00,35.0,25.2,30.09,SW,224,0.0,0.0,67,0.00,,,0.00,LWC V2.00 B2112,2013-02-19 07:59:00,
2013-02-19 03:04:00,35.3,25.8,30.09,SW,217,0.0,0.0,68,0.00,,,0.00,LWC V2.00 B2112,2013-02-19 08:04:00,
2013-02-19 03:09:00,35.5,25.6,30.08,SW,218,0.0,0.0,67,0.00,,,0.00,LWC V2.00 B2112,2013-02-19 08:09:00,
2013-02-19 03:14:00,35.5,25.6,30.08,South,170,0.0,0.0,67,0.00,,,0.00,LWC V2.00 B2112,2013-02-19 08:14:00,
2013-02-19 03:19:00,35.3,25.5,30.08,South,170,0.0,0.0,67,0.00,,,0.00,LWC V2.00 B2112,2013-02-19 08:19:00,
2013-02-19 03:24:00,35.3,25.5,30.08,SSW,197,0.0,0.0,67,0.00,,,0.00,LWC V2.00 B2112,2013-02-19 08:24:00,
2013-02-19 03:29:00,35.2,25.4,30.08,SSW,196,0.0,0.0,67,0.00,,,0.00,LWC V2.00 B2112,2013-02-19 08:29:00,
2013-02-19 03:34:00,35.0,25.5,30.08,SSW,196,0.0,0.0,68,0.00,,,0.00,LWC V2.00 B2112,2013-02-19 08:34:00,
2013-02-19 03:39:00,34.7,25.2,30.07,SSE,161,0.0,0.0,68,0.00,,,0.00,LWC V2.00 B2112,2013-02-19 08:39:00,
2013-02-19 03:44:00,34.7,25.6,30.07,SSW,196,0.0,0.0,69,0.00,,,0.00,LWC V2.00 B2112,2013-02-19 08:44:00,
2013-02-19 03:49:00,34.7,25.6,30.07,SSE,149,0.0,0.0,69,0.00,,,0.00,LWC V2.00 B2112,2013-02-19 08:49:00,
2013-02-19 03:54:00,34.7,25.6,30.06,South,177,0.0,0.0,69,0.00,,,0.00,LWC V2.00 B2112,2013-02-19 08:54:00,
2013-02-19 03:59:00,34.7,25.9,30.06,South,177,0.0,0.0,70,0.00,,,0.00,LWC V2.00 B2112,2013-02-19 08:59:00,
2013-02-19 04:04:00,34.6,25.8,30.06,South,190,0.0,0.0,70,0.00,,,0.00,LWC V2.00 B2112,2013-02-19 09:04:00,
2013-02-19 04:09:00,34.6,25.8,30.05,SSW,206,0.0,2.0,70,0.00,,,0.00,LWC V2.00 B2112,2013-02-19 09:09:00,
2013-02-19 04:14:00,34.6,25.8,30.05,SW,223,0.0,0.0,70,0.00,,,0.00,LWC V2.00 B2112,2013-02-19 09:14:00,
2013-02-19 04:19:00,34.4,26.0,30.05,SW,222,0.0,0.0,71,0.00,,,0.00,LWC V2.00 B2112,2013-02-19 09:19:00,
2013-02-19 04:24:00,34.3,25.9,30.05,SSE,148,0.0,0.0,71,0.00,,,0.00,LWC V2.00 B2112,2013-02-19 09:24:00,
2013-02-19 04:29:00,34.1,26.0,30.05,SSE,148,0.0,0.0,72,0.00,,,0.00,LWC V2.00 B2112,2013-02-19 09:29:00,
2013-02-19 04:34:00,34.0,25.9,30.05,East,97,0.0,0.0,72,0.00,,,0.00,LWC V2.00 B2112,2013-02-19 09:34:00,
2013-02-19 04:39:00,33.8,26.1,30.05,ESE,123,0.0,0.0,73,0.00,,,0.00,LWC V2.00 B2112,2013-02-19 09:39:00,
2013-02-19 04:44:00,33.7,26.0,30.05,ESE,123,0.0,0.0,73,0.00,,,0.00,LWC V2.00 B2112,2013-02-19 09:44:00,
2013-02-19 04:49:00,33.7,26.0,30.05,SSE,162,0.0,0.0,73,0.00,,,0.00,LWC V2.00 B2112,2013-02-19 09:49:00,
2013-02-19 04:54:00,33.7,26.3,30.05,SSW,204,0.0,0.0,74,0.00,,,0.00,LWC V2.00 B2112,2013-02-19 09:54:00,
2013-02-19 04:59:00,33.8,26.4,30.05,SSW,204,0.0,0.0,74,0.00,,,0.00,LWC V2.00 B2112,2013-02-19 09:59:00,
2013-02-19 05:04:00,33.8,26.4,30.05,SSW,210,0.0,0.0,74,0.00,,,0.00,LWC V2.00 B2112,2013-02-19 10:04:00,
2013-02-19 05:09:00,33.8,26.4,30.04,ESE,105,0.0,0.0,74,0.00,,,0.00,LWC V2.00 B2112,2013-02-19 10:09:00,
2013-02-19 05:14:00,33.7,26.3,30.04,ESE,105,0.0,0.0,74,0.00,,,0.00,LWC V2.00 B2112,2013-02-19 10:14:00,
2013-02-19 05:19:00,33.5,26.1,30.04,SSE,165,0.0,0.0,74,0.00,,,0.00,LWC V2.00 B2112,2013-02-19 10:19:00,
2013-02-19 05:24:00,33.5,26.4,30.03,SSE,165,0.0,0.0,75,0.00,,,0.00,LWC V2.00 B2112,2013-02-19 10:24:00,
2013-02-19 05:29:00,33.7,26.6,30.03,SSE,165,0.0,0.0,75,0.00,,,0.00,LWC V2.00 B2112,2013-02-19 10:29:00,
2013-02-19 05:34:00,33.7,26.6,30.03,SSW,205,0.0,0.0,75,0.00,,,0.00,LWC V2.00 B2112,2013-02-19 10:34:00,
2013-02-19 05:39:00,33.8,26.7,30.04,South,177,0.0,0.0,75,0.00,,,0.00,LWC V2.00 B2112,2013-02-19 10:39:00,
2013-02-19 05:44:00,34.0,26.9,30.04,South,177,0.0,0.0,75,0.00,,,0.00,LWC V2.00 B2112,2013-02-19 10:44:00,
2013-02-19 05:49:00,34.0,26.9,30.04,South,177,0.0,0.0,75,0.00,,,0.00,LWC V2.00 B2112,2013-02-19 10:49:00,
2013-02-19 05:54:00,33.8,26.7,30.04,South,177,0.0,0.0,75,0.00,,,0.00,LWC V2.00 B2112,2013-02-19 10:54:00,
2013-02-19 05:59:00,33.7,27.0,30.04,South,177,0.0,0.0,76,0.00,,,0.00,LWC V2.00 B2112,2013-02-19 10:59:00,
2013-02-19 06:04:00,33.7,27.0,30.04,South,177,0.0,0.0,76,0.00,,,0.00,LWC V2.00 B2112,2013-02-19 11:04:00,
2013-02-19 06:09:00,33.7,27.0,30.04,South,177,0.0,0.0,76,0.00,,,0.00,LWC V2.00 B2112,2013-02-19 11:09:00,
2013-02-19 06:14:00,33.7,27.0,30.04,South,177,0.0,0.0,76,0.00,,,0.00,LWC V2.00 B2112,2013-02-19 11:14:00,
2013-02-19 06:19:00,33.5,27.1,30.04,ENE,60,0.0,0.0,77,0.00,,,0.00,LWC V2.00 B2112,2013-02-19 11:19:00,
2013-02-19 06:24:00,33.4,27.0,30.02,South,191,0.0,0.0,77,0.00,,,0.00,LWC V2.00 B2112,2013-02-19 11:24:00,
2013-02-19 06:29:00,33.2,27.1,30.02,South,191,0.0,0.0,78,0.00,,,0.00,LWC V2.00 B2112,2013-02-19 11:29:00,
2013-02-19 06:34:00,33.1,27.0,30.02,South,191,0.0,0.0,78,0.00,,,0.00,LWC V2.00 B2112,2013-02-19 11:34:00,
2013-02-19 06:39:00,33.1,27.0,30.02,South,191,0.0,0.0,78,0.00,,,0.00,LWC V2.00 B2112,2013-02-19 11:39:00,
2013-02-19 06:44:00,33.1,27.3,30.02,South,191,0.0,0.0,79,0.00,,,0.00,LWC V2.00 B2112,2013-02-19 11:44:00,
2013-02-19 06:49:00,33.2,27.4,30.02,South,191,0.0,0.0,79,0.00,,,0.00,LWC V2.00 B2112,2013-02-19 11:49:00,
2013-02-19 06:54:00,33.4,27.6,30.02,South,191,0.0,0.0,79,0.00,,,0.00,LWC V2.00 B2112,2013-02-19 11:54:00,
2013-02-19 07:04:00,34.0,28.2,30.02,SSE,164,0.0,0.0,79,0.00,,,0.00,LWC V2.00 B2112,2013-02-19 12:04:00,
2013-02-19 07:09:00,34.6,28.5,30.01,South,177,0.0,0.0,78,0.00,,,0.00,LWC V2.00 B2112,2013-02-19 12:09:00,
2013-02-19 07:14:00,34.9,28.8,30.01,SW,227,0.0,0.0,78,0.00,,,0.00,LWC V2.00 B2112,2013-02-19 12:14:00,
2013-02-19 07:19:00,35.2,28.7,30.01,SW,218,0.0,0.0,77,0.00,,,0.00,LWC V2.00 B2112,2013-02-19 12:19:00,
2013-02-19 07:24:00,35.5,29.0,30.01,South,169,0.0,0.0,77,0.00,,,0.00,LWC V2.00 B2112,2013-02-19 12:24:00,
2013-02-19 07:29:00,35.9,29.1,30.01,SSE,155,0.0,0.0,76,0.00,,,0.00,LWC V2.00 B2112,2013-02-19 12:29:00,
2013-02-19 07:34:00,36.3,29.5,30.01,East,87,0.0,0.0,76,0.00,,,0.00,LWC V2.00 B2112,2013-02-19 12:34:00,
2013-02-19 07:39:00,37.0,30.2,30.01,SW,229,0.0,0.0,76,0.00,,,0.00,LWC V2.00 B2112,2013-02-19 12:39:00,
2013-02-19 07:44:00,37.5,30.3,30.01,SE,127,0.0,0.0,75,0.00,,,0.00,LWC V2.00 B2112,2013-02-19 12:44:00,
2013-02-19 07:49:00,37.9,30.4,30.01,SE,136,1.0,3.0,74,0.00,,,0.00,LWC V2.00 B2112,2013-02-19 12:49:00,
2013-02-19 07:54:00,38.2,30.3,30.01,SW,224,2.0,3.0,73,0.00,,,0.00,LWC V2.00 B2112,2013-02-19 12:54:00,
2013-02-19 07:59:00,38.6,30.7,30.01,WSW,256,0.0,5.0,73,0.00,,,0.00,LWC V2.00 B2112,2013-02-19 12:59:00,
2013-02-19 08:04:00,39.1,30.8,30.01,SSW,193,0.0,6.0,72,0.00,,,0.00,LWC V2.00 B2112,2013-02-19 13:04:00,
2013-02-19 08:09:00,39.6,31.3,30.00,SSE,155,0.0,5.0,72,0.00,,,0.00,LWC V2.00 B2112,2013-02-19 13:09:00,
2013-02-19 08:14:00,40.1,31.5,30.00,SSE,156,0.0,9.0,71,0.00,,,0.00,LWC V2.00 B2112,2013-02-19 13:14:00,
2013-02-19 08:19:00,40.5,31.8,30.00,SSW,197,0.0,0.0,71,0.00,,,0.00,LWC V2.00 B2112,2013-02-19 13:19:00,
2013-02-19 08:24:00,40.8,32.1,30.00,SW,219,0.0,0.0,71,0.00,,,0.00,LWC V2.00 B2112,2013-02-19 13:24:00,
2013-02-19 08:29:00,40.9,32.2,30.00,SW,226,0.0,0.0,71,0.00,,,0.00,LWC V2.00 B2112,2013-02-19 13:29:00,
2013-02-19 08:34:00,41.1,32.4,30.00,SE,136,0.0,0.0,71,0.00,,,0.00,LWC V2.00 B2112,2013-02-19 13:34:00,
2013-02-19 08:39:00,41.3,32.6,30.00,SSW,208,0.0,5.0,71,0.00,,,0.00,LWC V2.00 B2112,2013-02-19 13:39:00,
2013-02-19 08:44:00,41.5,33.2,30.00,SW,233,0.0,3.0,72,0.00,,,0.00,LWC V2.00 B2112,2013-02-19 13:44:00,
2013-02-19 08:49:00,41.8,33.4,30.00,SSE,163,0.0,0.0,72,0.00,,,0.00,LWC V2.00 B2112,2013-02-19 13:49:00,
2013-02-19 08:54:00,42.1,33.7,29.99,SSW,194,0.0,1.0,72,0.00,,,0.00,LWC V2.00 B2112,2013-02-19 13:54:00,
2013-02-19 08:59:00,42.2,33.8,29.99,SE,146,0.0,0.0,72,0.00,,,0.00,LWC V2.00 B2112,2013-02-19 13:59:00,
2013-02-19 09:04:00,42.5,34.5,29.99,SE,145,0.0,3.0,73,0.00,,,0.00,LWC V2.00 B2112,2013-02-19 14:04:00,
2013-02-19 09:09:00,42.8,34.8,29.99,SE,142,0.0,0.0,73,0.00,,,0.00,LWC V2.00 B2112,2013-02-19 14:09:00,
2013-02-19 09:14:00,43.2,35.1,29.99,South,190,0.0,4.0,73,0.00,,,0.00,LWC V2.00 B2112,2013-02-19 14:14:00,
2013-02-19 09:19:00,43.5,35.4,29.99,SSW,194,0.0,2.0,73,0.00,,,0.00,LWC V2.00 B2112,2013-02-19 14:19:00,
2013-02-19 09:24:00,43.8,35.7,29.97,SSE,158,1.0,2.0,73,0.00,,,0.00,LWC V2.00 B2112,2013-02-19 14:24:00,
2013-02-19 09:29:00,43.9,35.8,29.97,SSE,161,0.0,0.0,73,0.00,,,0.00,LWC V2.00 B2112,2013-02-19 14:29:00,
2013-02-19 09:34:00,43.9,35.8,29.97,SW,218,0.0,7.0,73,0.00,,,0.00,LWC V2.00 B2112,2013-02-19 14:34:00,
2013-02-19 09:39:00,43.9,35.8,29.97,SSE,165,0.0,2.0,73,0.00,,,0.00,LWC V2.00 B2112,2013-02-19 14:39:00,
2013-02-19 09:44:00,44.1,36.0,29.97,South,191,0.0,4.0,73,0.00,,,0.00,LWC V2.00 B2112,2013-02-19 14:44:00,
2013-02-19 09:49:00,44.1,36.0,29.97,SSW,211,0.0,0.0,73,0.00,,,0.00,LWC V2.00 B2112,2013-02-19 14:49:00,
2013-02-19 09:54:00,44.1,36.4,29.98,West,261,0.0,2.0,74,0.00,,,0.00,LWC V2.00 B2112,2013-02-19 14:54:00,
2013-02-19 09:59:00,44.1,36.4,29.98,SSE,155,0.0,3.0,74,0.00,,,0.00,LWC V2.00 B2112,2013-02-19 14:59:00,
2013-02-19 10:04:00,43.9,36.8,29.98,SE,138,5.0,5.0,76,0.00,,,0.00,LWC V2.00 B2112,2013-02-19 15:04:00,
2013-02-19 10:09:00,43.9,37.2,29.97,SSW,195,0.0,2.0,77,0.00,,,0.00,LWC V2.00 B2112,2013-02-19 15:09:00,
2013-02-19 10:14:00,44.1,37.7,29.97,SSE,148,0.0,0.0,78,0.00,,,0.00,LWC V2.00 B2112,2013-02-19 15:14:00,
2013-02-19 10:19:00,44.3,37.9,29.97,WNW,293,0.0,0.0,78,0.00,,,0.00,LWC V2.00 B2112,2013-02-19 15:19:00,
2013-02-19 10:24:00,44.6,38.5,29.97,West,264,0.0,0.0,79,0.00,,,0.00,LWC V2.00 B2112,2013-02-19 15:24:00,
2013-02-19 10:29:00,44.9,39.1,29.97,WSW,257,0.0,0.0,80,0.00,,,0.01,LWC V2.00 B2112,2013-02-19 15:29:00,
2013-02-19 10:34:00,45.2,39.4,29.97,WNW,296,0.0,0.0,80,0.00,,,0.01,LWC V2.00 B2112,2013-02-19 15:34:00,
2013-02-19 10:39:00,45.4,40.2,29.96,SSE,159,0.0,0.0,82,0.00,,,0.01,LWC V2.00 B2112,2013-02-19 15:39:00,
2013-02-19 10:44:00,45.5,40.3,29.96,West,260,0.0,0.0,82,0.00,,,0.01,LWC V2.00 B2112,2013-02-19 15:44:00,
2013-02-19 10:49:00,45.7,40.8,29.96,SW,227,0.0,0.0,83,0.00,,,0.01,LWC V2.00 B2112,2013-02-19 15:49:00,
2013-02-19 10:54:00,45.8,40.9,29.95,SW,227,0.0,0.0,83,0.00,,,0.01,LWC V2.00 B2112,2013-02-19 15:54:00,
2013-02-19 10:59:00,46.0,41.1,29.95,SW,225,0.0,0.0,83,0.00,,,0.01,LWC V2.00 B2112,2013-02-19 15:59:00,
2013-02-19 11:04:00,46.0,41.4,29.95,SW,225,0.0,0.0,84,0.00,,,0.01,LWC V2.00 B2112,2013-02-19 16:04:00,
2013-02-19 11:09:00,46.0,41.7,29.94,SW,225,0.0,0.0,85,0.00,,,0.02,LWC V2.00 B2112,2013-02-19 16:09:00,
2013-02-19 11:14:00,46.1,42.1,29.94,SW,225,0.0,0.0,86,0.00,,,0.02,LWC V2.00 B2112,2013-02-19 16:14:00,
2013-02-19 11:19:00,46.4,42.7,29.94,SW,225,0.0,0.0,87,0.00,,,0.02,LWC V2.00 B2112,2013-02-19 16:19:00,
2013-02-19 11:24:00,46.8,43.4,29.93,ENE,70,0.0,0.0,88,0.00,,,0.02,LWC V2.00 B2112,2013-02-19 16:24:00,
2013-02-19 11:29:00,47.3,43.9,29.93,WSW,257,0.0,0.0,88,0.00,,,0.02,LWC V2.00 B2112,2013-02-19 16:29:00,
2013-02-19 11:34:00,47.6,44.2,29.93,South,176,6.0,13.0,88,0.00,,,0.02,LWC V2.00 B2112,2013-02-19 16:34:00,
2013-02-19 11:39:00,48.0,44.6,29.92,South,172,2.0,16.0,88,0.00,,,0.02,LWC V2.00 B2112,2013-02-19 16:39:00,
2013-02-19 11:44:00,48.5,44.8,29.92,SW,231,1.0,6.0,87,0.00,,,0.02,LWC V2.00 B2112,2013-02-19 16:44:00,
2013-02-19 11:49:00,48.8,44.8,29.92,SW,221,2.0,19.0,86,0.00,,,0.02,LWC V2.00 B2112,2013-02-19 16:49:00,
2013-02-19 11:54:00,48.9,44.9,29.91,South,187,0.0,5.0,86,0.00,,,0.02,LWC V2.00 B2112,2013-02-19 16:54:00,
2013-02-19 11:59:00,48.9,45.2,29.91,WSW,245,0.0,4.0,87,0.00,,,0.02,LWC V2.00 B2112,2013-02-19 16:59:00,
2013-02-19 12:04:00,48.9,45.5,29.91,SE,132,1.0,6.0,88,0.00,,,0.02,LWC V2.00 B2112,2013-02-19 17:04:00,
2013-02-19 12:09:00,48.9,45.5,29.90,WSW,257,2.0,4.0,88,0.00,,,0.02,LWC V2.00 B2112,2013-02-19 17:09:00,
2013-02-19 12:14:00,49.1,45.4,29.90,South,181,0.0,2.0,87,0.00,,,0.02,LWC V2.00 B2112,2013-02-19 17:14:00,
2013-02-19 12:19:00,49.1,45.4,29.90,SSW,210,0.0,1.0,87,0.00,,,0.02,LWC V2.00 B2112,2013-02-19 17:19:00,
2013-02-19 12:24:00,49.2,45.5,29.89,WNW,282,0.0,2.0,87,0.00,,,0.02,LWC V2.00 B2112,2013-02-19 17:24:00,
2013-02-19 12:29:00,49.4,45.7,29.89,WSW,255,0.0,0.0,87,0.00,,,0.02,LWC V2.00 B2112,2013-02-19 17:29:00,
2013-02-19 12:34:00,49.5,45.5,29.89,WSW,257,0.0,4.0,86,0.00,,,0.02,LWC V2.00 B2112,2013-02-19 17:34:00,
2013-02-19 12:39:00,49.6,45.6,29.88,South,177,0.0,13.0,86,0.00,,,0.02,LWC V2.00 B2112,2013-02-19 17:39:00,
2013-02-19 12:44:00,49.8,45.2,29.88,SW,231,3.0,7.0,84,0.00,,,0.02,LWC V2.00 B2112,2013-02-19 17:44:00,
2013-02-19 12:49:00,49.9,45.3,29.88,SE,146,2.0,6.0,84,0.00,,,0.02,LWC V2.00 B2112,2013-02-19 17:49:00,
2013-02-19 12:54:00,50.1,45.5,29.86,SSW,200,1.0,4.0,84,0.00,,,0.02,LWC V2.00 B2112,2013-02-19 17:54:00,
2013-02-19 12:59:00,50.4,45.4,29.86,South,177,0.0,6.0,83,0.00,,,0.02,LWC V2.00 B2112,2013-02-19 17:59:00,
2013-02-19 13:04:00,50.5,45.5,29.86,WSW,243,0.0,15.0,83,0.00,,,0.02,LWC V2.00 B2112,2013-02-19 18:04:00,
2013-02-19 13:09:00,50.8,46.1,29.84,SW,225,1.0,6.0,84,0.00,,,0.02,LWC V2.00 B2112,2013-02-19 18:09:00,
2013-02-19 13:14:00,51.1,46.4,29.84,WNW,290,1.0,2.0,84,0.00,,,0.02,LWC V2.00 B2112,2013-02-19 18:14:00,
2013-02-19 13:19:00,51.3,46.6,29.84,SSW,212,0.0,3.0,84,0.00,,,0.02,LWC V2.00 B2112,2013-02-19 18:19:00,
2013-02-19 13:24:00,51.3,46.6,29.83,SW,217,0.0,6.0,84,0.00,,,0.02,LWC V2.00 B2112,2013-02-19 18:24:00,
2013-02-19 13:29:00,51.4,46.7,29.83,SW,217,0.0,5.0,84,0.00,,,0.02,LWC V2.00 B2112,2013-02-19 18:29:00,
2013-02-19 13:34:00,51.4,46.7,29.83,South,191,0.0,2.0,84,0.00,,,0.02,LWC V2.00 B2112,2013-02-19 18:34:00,
2013-02-19 13:39:00,51.6,46.9,29.81,SSW,193,1.0,7.0,84,0.00,,,0.02,LWC V2.00 B2112,2013-02-19 18:39:00,
2013-02-19 13:44:00,51.6,47.2,29.81,SSE,155,0.0,12.0,85,0.00,,,0.02,LWC V2.00 B2112,2013-02-19 18:44:00,
2013-02-19 13:49:00,51.6,47.2,29.81,SSW,212,0.0,3.0,85,0.00,,,0.02,LWC V2.00 B2112,2013-02-19 18:49:00,
2013-02-19 13:54:00,51.6,47.5,29.81,SW,236,1.0,1.0,86,0.00,,,0.02,LWC V2.00 B2112,2013-02-19 18:54:00,
2013-02-19 13:59:00,51.7,47.6,29.81,SW,219,0.0,7.0,86,0.00,,,0.02,LWC V2.00 B2112,2013-02-19 18:59:00,
2013-02-19 14:04:00,51.7,47.6,29.81,WSW,255,3.0,11.0,86,0.00,,,0.02,LWC V2.00 B2112,2013-02-19 19:04:00,
2013-02-19 14:09:00,51.9,47.5,29.80,SW,229,1.0,1.0,85,0.00,,,0.02,LWC V2.00 B2112,2013-02-19 19:09:00,
2013-02-19 14:14:00,52.0,48.3,29.80,NNW,346,1.0,3.0,87,0.00,,,0.02,LWC V2.00 B2112,2013-02-19 19:14:00,
2013-02-19 14:19:00,51.7,48.6,29.80,West,262,0.0,5.0,89,0.00,,,0.03,LWC V2.00 B2112,2013-02-19 19:19:00,
2013-02-19 14:24:00,51.4,48.9,29.80,SW,231,0.0,1.0,91,0.13,,,0.04,LWC V2.00 B2112,2013-02-19 19:24:00,
2013-02-19 14:29:00,51.3,49.1,29.80,WSW,246,1.0,9.0,92,0.12,,,0.05,LWC V2.00 B2112,2013-02-19 19:29:00,
2013-02-19 14:34:00,51.1,49.1,29.80,SW,220,0.0,2.0,93,0.10,,,0.06,LWC V2.00 B2112,2013-02-19 19:34:00,
2013-02-19 14:39:00,51.0,49.3,29.80,WSW,238,2.0,10.0,94,0.09,,,0.06,LWC V2.00 B2112,2013-02-19 19:39:00,
2013-02-19 14:44:00,51.0,49.6,29.80,West,276,0.0,1.0,95,0.05,,,0.06,LWC V2.00 B2112,2013-02-19 19:44:00,
2013-02-19 14:49:00,51.0,49.6,29.80,West,276,0.0,0.0,95,0.05,,,0.07,LWC V2.00 B2112,2013-02-19 19:49:00,
2013-02-19 14:54:00,50.8,49.7,29.79,WSW,248,0.0,2.0,96,0.05,,,0.07,LWC V2.00 B2112,2013-02-19 19:54:00,
2013-02-19 14:59:00,50.8,49.7,29.79,WSW,239,0.0,0.0,96,0.04,,,0.07,LWC V2.00 B2112,2013-02-19 19:59:00,
2013-02-19 15:04:00,50.8,49.7,29.79,South,188,0.0,0.0,96,0.04,,,0.08,LWC V2.00 B2112,2013-02-19 20:04:00,
2013-02-19 15:09:00,50.8,49.7,29.78,West,271,0.0,0.0,96,0.04,,,0.08,LWC V2.00 B2112,2013-02-19 20:09:00,
2013-02-19 15:14:00,50.8,49.7,29.78,ESE,114,0.0,0.0,96,0.04,,,0.08,LWC V2.00 B2112,2013-02-19 20:14:00,
2013-02-19 15:19:00,50.7,49.6,29.78,West,277,0.0,0.0,96,0.00,,,0.08,LWC V2.00 B2112,2013-02-19 20:19:00,
2013-02-19 15:24:00,50.7,49.6,29.78,SSE,160,0.0,0.0,96,0.00,,,0.08,LWC V2.00 B2112,2013-02-19 20:24:00,
2013-02-19 15:29:00,50.7,49.6,29.78,WNW,296,0.0,2.0,96,0.00,,,0.08,LWC V2.00 B2112,2013-02-19 20:29:00,
2013-02-19 15:34:00,50.7,49.6,29.78,West,262,0.0,1.0,96,0.00,,,0.08,LWC V2.00 B2112,2013-02-19 20:34:00,
2013-02-19 15:39:00,50.7,49.6,29.78,NW,304,0.0,1.0,96,0.00,,,0.08,LWC V2.00 B2112,2013-02-19 20:39:00,
2013-02-19 15:44:00,50.5,49.4,29.78,SW,229,0.0,3.0,96,0.00,,,0.08,LWC V2.00 B2112,2013-02-19 20:44:00,
2013-02-19 15:49:00,50.5,49.4,29.78,West,261,0.0,3.0,96,0.00,,,0.08,LWC V2.00 B2112,2013-02-19 20:49:00,
2013-02-19 15:54:00,50.7,49.6,29.77,SSE,148,0.0,3.0,96,0.00,,,0.08,LWC V2.00 B2112,2013-02-19 20:54:00,
2013-02-19 15:59:00,50.5,49.4,29.77,West,264,0.0,1.0,96,0.00,,,0.08,LWC V2.00 B2112,2013-02-19 20:59:00,
2013-02-19 16:04:00,50.5,49.4,29.77,West,259,0.0,0.0,96,0.00,,,0.08,LWC V2.00 B2112,2013-02-19 21:04:00,
2013-02-19 16:09:00,50.5,49.1,29.77,WSW,239,1.0,1.0,95,0.00,,,0.08,LWC V2.00 B2112,2013-02-19 21:09:00,
2013-02-19 16:14:00,50.4,49.0,29.77,West,276,1.0,1.0,95,0.00,,,0.08,LWC V2.00 B2112,2013-02-19 21:14:00,
2013-02-19 16:19:00,50.2,48.5,29.77,NW,307,0.0,6.0,94,0.00,,,0.08,LWC V2.00 B2112,2013-02-19 21:19:00,
2013-02-19 16:24:00,50.1,48.2,29.77,ESE,105,1.0,6.0,93,0.00,,,0.08,LWC V2.00 B2112,2013-02-19 21:24:00,
2013-02-19 16:29:00,50.1,48.2,29.77,West,271,2.0,7.0,93,0.00,,,0.08,LWC V2.00 B2112,2013-02-19 21:29:00,
2013-02-19 16:34:00,50.1,47.9,29.77,West,264,14.0,18.0,92,0.00,,,0.08,LWC V2.00 B2112,2013-02-19 21:34:00,
2013-02-19 16:39:00,50.1,47.9,29.77,South,182,1.0,3.0,92,0.00,,,0.08,LWC V2.00 B2112,2013-02-19 21:39:00,
2013-02-19 16:44:00,49.9,47.7,29.77,SSW,198,0.0,2.0,92,0.00,,,0.08,LWC V2.00 B2112,2013-02-19 21:44:00,
2013-02-19 16:49:00,49.8,47.6,29.77,SW,227,0.0,1.0,92,0.00,,,0.08,LWC V2.00 B2112,2013-02-19 21:49:00,
2013-02-19 16:54:00,49.8,47.6,29.77,WSW,243,1.0,1.0,92,0.00,,,0.08,LWC V2.00 B2112,2013-02-19 21:54:00,
2013-02-19 16:59:00,49.6,47.1,29.77,SW,228,0.0,2.0,91,0.00,,,0.08,LWC V2.00 B2112,2013-02-19 21:59:00,
2013-02-19 17:04:00,49.6,47.4,29.77,West,274,0.0,2.0,92,0.00,,,0.08,LWC V2.00 B2112,2013-02-19 22:04:00,
2013-02-19 17:09:00,49.5,47.3,29.78,SSW,208,1.0,3.0,92,0.00,,,0.08,LWC V2.00 B2112,2013-02-19 22:09:00,
2013-02-19 17:14:00,49.5,47.3,29.78,SW,232,0.0,3.0,92,0.00,,,0.08,LWC V2.00 B2112,2013-02-19 22:14:00,
2013-02-19 17:19:00,49.4,47.2,29.78,North,0,0.0,0.0,92,0.00,,,0.08,LWC V2.00 B2112,2013-02-19 22:19:00,
2013-02-19 17:24:00,49.4,47.2,29.78,West,266,0.0,1.0,92,0.00,,,0.08,LWC V2.00 B2112,2013-02-19 22:24:00,
2013-02-19 17:29:00,49.2,47.0,29.78,SW,229,0.0,4.0,92,0.00,,,0.08,LWC V2.00 B2112,2013-02-19 22:29:00,
2013-02-19 17:34:00,49.2,47.0,29.78,SSW,204,0.0,5.0,92,0.00,,,0.08,LWC V2.00 B2112,2013-02-19 22:34:00,
2013-02-19 17:39:00,49.1,46.9,29.78,WNW,301,0.0,2.0,92,0.00,,,0.08,LWC V2.00 B2112,2013-02-19 22:39:00,
2013-02-19 17:44:00,49.1,46.9,29.78,West,269,0.0,0.0,92,0.00,,,0.08,LWC V2.00 B2112,2013-02-19 22:44:00,
2013-02-19 17:49:00,48.9,46.7,29.78,WNW,300,0.0,0.0,92,0.00,,,0.08,LWC V2.00 B2112,2013-02-19 22:49:00,
2013-02-19 17:54:00,48.9,46.7,29.80,NW,321,0.0,4.0,92,0.00,,,0.08,LWC V2.00 B2112,2013-02-19 22:54:00,
2013-02-19 17:59:00,48.8,46.6,29.80,WSW,245,0.0,1.0,92,0.00,,,0.08,LWC V2.00 B2112,2013-02-19 22:59:00,
2013-02-19 18:04:00,48.6,46.1,29.80,WSW,252,0.0,5.0,91,0.00,,,0.08,LWC V2.00 B2112,2013-02-19 23:04:00,
2013-02-19 18:09:00,48.6,45.8,29.80,WSW,257,0.0,2.0,90,0.00,,,0.08,LWC V2.00 B2112,2013-02-19 23:09:00,
2013-02-19 18:14:00,48.5,45.7,29.80,NW,306,0.0,10.0,90,0.00,,,0.08,LWC V2.00 B2112,2013-02-19 23:14:00,
2013-02-19 18:19:00,48.5,45.4,29.80,NW,308,0.0,3.0,89,0.00,,,0.08,LWC V2.00 B2112,2013-02-19 23:19:00,
2013-02-19 18:24:00,48.3,45.2,29.81,West,262,1.0,1.0,89,0.00,,,0.08,LWC V2.00 B2112,2013-02-19 23:24:00,
2013-02-19 18:29:00,48.3,44.9,29.81,WNW,297,0.0,0.0,88,0.00,,,0.08,LWC V2.00 B2112,2013-02-19 23:29:00,
2013-02-19 18:34:00,48.0,44.6,29.81,SW,219,0.0,1.0,88,0.00,,,0.08,LWC V2.00 B2112,2013-02-19 23:34:00,
2013-02-19 18:39:00,47.9,44.5,29.81,WSW,245,0.0,0.0,88,0.00,,,0.08,LWC V2.00 B2112,2013-02-19 23:39:00,
2013-02-19 18:44:00,47.6,44.2,29.81,SSE,155,0.0,0.0,88,0.00,,,0.08,LWC V2.00 B2112,2013-02-19 23:44:00,
2013-02-19 18:49:00,47.4,44.0,29.81,West,265,0.0,0.0,88,0.00,,,0.08,LWC V2.00 B2112,2013-02-19 23:49:00,
2013-02-19 18:54:00,47.1,44.0,29.82,West,276,0.0,0.0,89,0.00,,,0.08,LWC V2.00 B2112,2013-02-19 23:54:00,
2013-02-19 18:59:00,46.8,43.7,29.82,West,262,0.0,0.0,89,0.00,,,0.08,LWC V2.00 B2112,2013-02-19 23:59:00,
2013-02-19 19:04:00,46.5,43.7,29.82,SW,218,0.0,0.0,90,0.00,,,0.08,LWC V2.00 B2112,2013-02-20 00:04:00,
2013-02-19 19:09:00,46.2,43.4,29.82,SW,218,0.0,0.0,90,0.00,,,0.08,LWC V2.00 B2112,2013-02-20 00:09:00,
2013-02-19 19:14:00,46.1,43.6,29.82,SSW,195,0.0,0.0,91,0.00,,,0.08,LWC V2.00 B2112,2013-02-20 00:14:00,
2013-02-19 19:19:00,46.0,43.5,29.82,NW,320,0.0,0.0,91,0.00,,,0.08,LWC V2.00 B2112,2013-02-20 00:19:00,
2013-02-19 19:24:00,45.8,43.3,29.83,WSW,257,0.0,0.0,91,0.00,,,0.08,LWC V2.00 B2112,2013-02-20 00:24:00,
2013-02-19 19:29:00,45.8,43.3,29.83,South,176,0.0,0.0,91,0.00,,,0.08,LWC V2.00 B2112,2013-02-20 00:29:00,
2013-02-19 19:34:00,45.5,43.0,29.83,WSW,238,0.0,0.0,91,0.00,,,0.08,LWC V2.00 B2112,2013-02-20 00:34:00,
2013-02-19 19:39:00,45.4,43.2,29.83,WSW,238,0.0,0.0,92,0.00,,,0.08,LWC V2.00 B2112,2013-02-20 00:39:00,
2013-02-19 19:44:00,45.1,42.9,29.83,WSW,239,0.0,0.0,92,0.00,,,0.08,LWC V2.00 B2112,2013-02-20 00:44:00,
2013-02-19 19:49:00,44.9,42.7,29.83,West,266,0.0,0.0,92,0.00,,,0.08,LWC V2.00 B2112,2013-02-20 00:49:00,
2013-02-19 19:54:00,44.8,42.9,29.83,WNW,303,0.0,0.0,93,0.00,,,0.08,LWC V2.00 B2112,2013-02-20 00:54:00,
2013-02-19 19:59:00,44.6,42.7,29.83,WSW,237,0.0,0.0,93,0.00,,,0.08,LWC V2.00 B2112,2013-02-20 00:59:00,
2013-02-19 20:04:00,44.5,42.6,29.83,West,264,0.0,0.0,93,0.00,,,0.08,LWC V2.00 B2112,2013-02-20 01:04:00,
2013-02-19 20:09:00,44.3,42.7,29.84,West,266,0.0,0.0,94,0.00,,,0.08,LWC V2.00 B2112,2013-02-20 01:09:00,
2013-02-19 20:14:00,44.3,42.7,29.84,West,266,0.0,0.0,94,0.00,,,0.08,LWC V2.00 B2112,2013-02-20 01:14:00,
2013-02-19 20:19:00,44.1,42.5,29.84,WSW,250,0.0,0.0,94,0.00,,,0.08,LWC V2.00 B2112,2013-02-20 01:19:00,
2013-02-19 20:24:00,44.1,42.5,29.84,WSW,250,0.0,0.0,94,0.00,,,0.08,LWC V2.00 B2112,2013-02-20 01:24:00,
2013-02-19 20:29:00,43.9,42.3,29.84,SSW,210,0.0,0.0,94,0.00,,,0.08,LWC V2.00 B2112,2013-02-20 01:29:00,
2013-02-19 20:34:00,43.8,42.2,29.84,WSW,249,0.0,0.0,94,0.00,,,0.08,LWC V2.00 B2112,2013-02-20 01:34:00,
2013-02-19 20:39:00,43.8,42.5,29.84,WSW,253,0.0,0.0,95,0.00,,,0.08,LWC V2.00 B2112,2013-02-20 01:39:00,
2013-02-19 20:44:00,43.8,42.5,29.84,West,275,0.0,0.0,95,0.00,,,0.08,LWC V2.00 B2112,2013-02-20 01:44:00,
2013-02-19 20:49:00,43.6,42.3,29.84,West,272,0.0,0.0,95,0.00,,,0.08,LWC V2.00 B2112,2013-02-20 01:49:00,
2013-02-19 20:54:00,43.6,42.3,29.85,WSW,253,0.0,0.0,95,0.00,,,0.08,LWC V2.00 B2112,2013-02-20 01:54:00,
2013-02-19 20:59:00,43.6,42.3,29.85,West,259,0.0,0.0,95,0.00,,,0.08,LWC V2.00 B2112,2013-02-20 01:59:00,
2013-02-19 21:04:00,43.5,41.9,29.85,SW,229,0.0,0.0,94,0.00,,,0.08,LWC V2.00 B2112,2013-02-20 02:04:00,
2013-02-19 21:09:00,43.3,41.7,29.85,SW,229,0.0,0.0,94,0.00,,,0.08,LWC V2.00 B2112,2013-02-20 02:09:00,
2013-02-19 21:14:00,43.1,41.5,29.85,West,261,0.0,0.0,94,0.00,,,0.08,LWC V2.00 B2112,2013-02-20 02:14:00,
2013-02-19 21:19:00,43.1,41.5,29.85,WNW,286,0.0,0.0,94,0.00,,,0.08,LWC V2.00 B2112,2013-02-20 02:19:00,
2013-02-19 21:24:00,42.9,41.3,29.86,WSW,257,0.0,0.0,94,0.00,,,0.08,LWC V2.00 B2112,2013-02-20 02:24:00,
2013-02-19 21:29:00,42.9,41.3,29.86,WNW,294,0.0,0.0,94,0.00,,,0.08,LWC V2.00 B2112,2013-02-20 02:29:00,
2013-02-19 21:34:00,42.6,41.0,29.86,WNW,294,0.0,0.0,94,0.00,,,0.08,LWC V2.00 B2112,2013-02-20 02:34:00,
2013-02-19 21:39:00,42.6,41.0,29.86,WNW,294,0.0,0.0,94,0.00,,,0.08,LWC V2.00 B2112,2013-02-20 02:39:00,
2013-02-19 21:44:00,42.3,40.7,29.86,WNW,291,0.0,0.0,94,0.00,,,0.08,LWC V2.00 B2112,2013-02-20 02:44:00,
2013-02-19 21:49:00,42.2,40.6,29.86,WNW,289,0.0,0.0,94,0.00,,,0.08,LWC V2.00 B2112,2013-02-20 02:49:00,
2013-02-19 21:54:00,42.1,40.5,29.86,WNW,289,0.0,0.0,94,0.00,,,0.08,LWC V2.00 B2112,2013-02-20 02:54:00,
2013-02-19 21:59:00,41.9,40.6,29.86,WSW,257,0.0,0.0,95,0.00,,,0.08,LWC V2.00 B2112,2013-02-20 02:59:00,
2013-02-19 22:04:00,41.8,40.2,29.86,WSW,257,0.0,0.0,94,0.00,,,0.08,LWC V2.00 B2112,2013-02-20 03:04:00,
2013-02-19 22:09:00,41.5,39.9,29.86,West,265,0.0,0.0,94,0.00,,,0.08,LWC V2.00 B2112,2013-02-20 03:09:00,
2013-02-19 22:14:00,41.3,39.7,29.86,West,264,0.0,0.0,94,0.00,,,0.08,LWC V2.00 B2112,2013-02-20 03:14:00,
2013-02-19 22:19:00,41.2,39.9,29.86,West,266,0.0,0.0,95,0.00,,,0.08,LWC V2.00 B2112,2013-02-20 03:19:00,
2013-02-19 22:24:00,41.1,39.8,29.86,West,266,0.0,0.0,95,0.00,,,0.08,LWC V2.00 B2112,2013-02-20 03:24:00,
2013-02-19 22:29:00,40.8,39.5,29.86,West,266,0.0,0.0,95,0.00,,,0.08,LWC V2.00 B2112,2013-02-20 03:29:00,
2013-02-19 22:34:00,40.8,39.5,29.86,West,267,0.0,0.0,95,0.00,,,0.08,LWC V2.00 B2112,2013-02-20 03:34:00,
2013-02-19 22:39:00,40.5,39.2,29.86,West,263,0.0,0.0,95,0.00,,,0.08,LWC V2.00 B2112,2013-02-20 03:39:00,
2013-02-19 22:44:00,40.5,39.2,29.86,West,263,0.0,0.0,95,0.00,,,0.08,LWC V2.00 B2112,2013-02-20 03:44:00,
2013-02-19 22:49:00,40.3,39.3,29.86,WNW,297,0.0,0.0,96,0.00,,,0.08,LWC V2.00 B2112,2013-02-20 03:49:00,
2013-02-19 22:54:00,40.3,39.3,29.86,West,273,0.0,0.0,96,0.00,,,0.08,LWC V2.00 B2112,2013-02-20 03:54:00,
2013-02-19 22:59:00,40.2,39.2,29.86,SW,221,0.0,0.0,96,0.00,,,0.08,LWC V2.00 B2112,2013-02-20 03:59:00,
2013-02-19 23:04:00,40.1,39.1,29.86,SW,221,0.0,0.0,96,0.00,,,0.08,LWC V2.00 B2112,2013-02-20 04:04:00,
2013-02-19 23:09:00,39.8,38.8,29.86,SW,221,0.0,0.0,96,0.00,,,0.08,LWC V2.00 B2112,2013-02-20 04:09:00,
2013-02-19 23:14:00,39.5,38.5,29.86,SW,221,0.0,0.0,96,0.00,,,0.08,LWC V2.00 B2112,2013-02-20 04:14:00,
2013-02-19 23:19:00,39.3,38.3,29.86,SW,231,0.0,0.0,96,0.00,,,0.08,LWC V2.00 B2112,2013-02-20 04:19:00,
2013-02-19 23:24:00,39.1,38.1,29.86,SW,231,0.0,0.0,96,0.00,,,0.08,LWC V2.00 B2112,2013-02-20 04:24:00,
2013-02-19 23:29:00,38.8,37.8,29.86,SW,231,0.0,0.0,96,0.00,,,0.08,LWC V2.00 B2112,2013-02-20 04:29:00,
2013-02-19 23:34:00,38.6,37.6,29.86,SW,231,0.0,0.0,96,0.00,,,0.08,LWC V2.00 B2112,2013-02-20 04:34:00,
2013-02-19 23:39:00,38.3,37.3,29.86,SW,231,0.0,0.0,96,0.00,,,0.08,LWC V2.00 B2112,2013-02-20 04:39:00,
2013-02-19 23:44:00,38.2,37.2,29.86,SW,231,0.0,0.0,96,0.00,,,0.08,LWC V2.00 B2112,2013-02-20 04:44:00,
2013-02-19 23:49:00,38.2,37.2,29.86,SW,231,0.0,0.0,96,0.00,,,0.08,LWC V2.00 B2112,2013-02-20 04:49:00,
2013-02-19 23:54:00,38.3,37.5,29.86,SW,231,0.0,0.0,97,0.00,,,0.08,LWC V2.00 B2112,2013-02-20 04:54:00,
2013-02-19 23:59:00,38.0,37.0,29.86,SW,231,0.0,0.0,96,0.00,,,0.08,LWC V2.00 B2112,2013-02-20 04:59:00,